Showing default

JACKAL-004, 69012

Orbit data source: Space-Track

JACKAL-004, 69012 is a payload satellite owned by True Anomaly (US) in SSO that was launched on Sun, 03 May 2026 UTC via an FALCON 9 launch vehicle from the Air Force Western Test Range (AFWTR). Payload-class satellites include a variety of spacecraft equipped with specific instruments for various scientific and technological missions. These include communications satellites like Starlink; space stations such as the ISS; scientific satellites like the Hubble; Earth observation satellites from companies like Planet Labs, Umbra, and HawkEye 360; GPS; miniature CubeSats for education and research; and military/defense satellites.

Loading next visibility...
Identifier
69012, 2026-100AJ
Orbit
SSO
Country
Flag of USUS
Related business
Manufacturer
True Anomaly
Mission
Operational Commercial Technology
Bus & Motor
JACKAL AOV, Unknown motor
Mass
275 kg wet, 275 kg dry
Launch date (UTC)
2026-05-03 (5 months ago)
Launch vehicle
FALCON 9
Launch site
Air Force Western Test Range (AFWTR)
Object type
Payload
Rocket body
Debris
Shape & HBR
Box + 2 Pan, 2.3 m
Radar Cross Section
1.240 m², Large (>1 m²)

Expand to show TLE details & history
Last TLE update: 5 hours ago

TLE from 5 hours ago
0 JACKAL-004
1 69012U 26100AJ  26266.29873720  .00002586  00000-0  11818-3 0  9990
2 69012  97.4524 162.9083 0012585 178.5257 181.6018 15.21406472 21725
Epoch: 2026-09-23T07:10Z
TLE epoch observation values (Epoch: 2026-09-23T07:10:10.894Z)
Latitude
-0.00001°
Longitude
53.21105°
Altitude
513.345 km
Speed
7.602 km/s
True Right ascension
10h 51m 37s
True Declination
0° 00' 00"
Sunlit
Object was in daylight at epoch
Visualization orbit readout
Latitude
Unknown
Longitude
Unknown
Altitude
Unknown
Speed
Unknown
Apparent Right ascension
Unknown
Apparent Declination
Unknown
Sunlit
N/A
Visualization observer readout
Local Sidereal Time
05:22:35
Azimuth
Unknown
Elevation
Unknown
Doppler factor
Unknown
Orbital elements
Apogee altitude
507.218 km
Perigee altitude
489.909 km
Semi-major axis
6,876.7 km
Eccentricity
0.00126
Inclination
97.4524°
RAAN
162.9083°
Arg. of periapsis
178.5257°
True anomaly
181.59778°
Mean anomaly
181.6018°
Eccentric anomaly
181.59979°
Mean motion
3.80604 °/min
Orbital period
94.59 mins
BSTAR
0.00011818
Loading maneuver chart data...
Computing Atmospheric mass density...
Loading historical data...
Loading historical data...
Loading historical data...
Loading historical data...
Loading historical data...
Loading historical data...
Loading historical data...

Documentation

Showing up to 5 results
|